Temperature
21 20 20 20 20 20 20 20 20 20 20 19 19 19 19 19 19 19 19 19 18 18 18 18 18 18 18 18 18 18 18 18 18 18 18 18 17 17 17 17 17 17 17
21 20 20 20 20 20 20 20 20 20 20 19 19 19 19 19 19 19 19 18 18 18 19 18 18 18 18 18 18 18 18 18 18 18 18 17 17 17 17 17 17 17 17
20 20 20 20 20 20 20 20 20 20 20 20 19 19 19 19 19 19 19 18 18 18 19 19 18 18 18 18 18 18 18 18 18 17 17 17 17 17 17 17 17 17 17
20 19 19 20 20 20 20 20 20 20 20 20 19 19 19 19 19 19 19 19 19 19 19 19 18 18 18 18 18 18 18 18 17 17 17 17 17 17 17 17 17 17 17
20 19 19 20 20 20 20 20 20 20 20 19 19 19 19 19 19 19 19 19 19 19 19 18 18 18 18 18 18 18 18 17 17 17 17 17 17 17 17 17 17 17 17
20 19 19 20 20 20 20 20 20 20 20 19 19 19 19 19 19 19 19 19 19 19 18 18 18 18 18 18 18 18 17 18 17 17 17 17 17 17 17 17 17 17 17
20 19 19 20 20 19 19 19 20 19 19 19 19 19 19 19 19 19 18 18 18 18 18 18 18 18 18 18 18 18 17 17 17 17 17 17 17 17 17 17 17 17 17
20 19 19 19 19 19 19 19 19 19 19 19 19 19 19 19 19 18 18 18 18 18 18 18 18 18 18 18 18 18 17 17 17 17 17 17 17 17 17 17 17 17 17
20 19 19 19 19 19 19 19 19 19 19 19 19 19 19 19 18 18 18 18 18 18 18 18 18 18 18 18 18 17 17 18 17 17 17 17 17 17 17 17 17 17 17
20 19 19 19 18 18 19 19 19 19 19 19 19 19 19 19 18 18 18 18 18 18 18 18 18 18 18 18 18 18 18 18 18 18 17 17 18 17 17 17 17 17 17
19 19 19 19 18 18 18 18 18 19 19 19 18 19 18 17 17 17 17 18 18 18 18 18 18 18 18 18 18 18 18 17 18 18 17 17 17 17 17 17 17 17 17
19 19 19 19 18 18 18 18 18 18 18 18 17 17 18 17 17 17 17 18 18 18 18 18 18 17 17 17 17 18 18 17 18 18 17 18 17 17 17 17 17 17 17
19 18 18 18 18 18 18 18 18 18 18 17 17 17 18 17 17 17 17 17 17 17 17 17 17 17 17 17 17 17 17 18 18 18 17 18 18 17 17 17 17 17 17
18 18 18 18 18 18 18 18 18 18 18 18 17 18 17 17 17 17 17 17 17 17 17 17 17 17 17 17 17 17 17 17 17 17 17 17 18 18 17 17 17 17 17
18 18 18 18 18 18 18 18 18 18 18 18 17 17 17 17 17 17 17 17 17 17 17 17 17 17 17 16 17 16 17 17 17 17 17 17 17 17 17 17 17 17 17
18 18 18 18 18 18 18 18 18 18 18 18 17 17 17 17 17 17 17 17 17 17 17 17 16 16 16 16 16 16 16 17 17 17 17 17 17 17 17 17 17 17 17
18 18 18 18 18 18 18 18 18 18 18 17 17 17 17 17 17 17 16 16 16 16 16 16 16 16 16 16 16 16 16 16 16 16 16 16 17 17 17 17 17 17 17
18 18 18 18 18 18 18 18 18 18 17 17 17 17 17 17 17 16 16 16 16 16 16 16 16 16 16 16 16 16 16 16 16 16 16 16 16 16 16 17 17 17 16
18 18 18 18 18 18 18 18 18 17 17 17 17 17 17 17 16 16 16 16 16 16 16 16 16 16 16 16 16 16 16 16 16 16 16 16 16 16 16 16 16 16 16
18 18 18 18 18 18 18 18 17 17 17 17 17 17 17 16 16 16 16 16 15 15 15 15 15 15 15 15 16 16 16 16 16 16 16 16 16 16 16 16 16 16 16
18 18 18 18 18 18 18 17 17 17 17 17 17 17 16 16 16 16 16 15 15 15 15 15 15 15 15 15 15 16 16 16 16 15 16 16 16 15 16 16 16 16 16
18 18 18 18 18 17 17 17 17 17 17 16 16 16 16 16 16 15 15 15 15 15 14 14 14 15 15 15 15 16 17 17 16 16 15 15 15 15 15 15 15 15 15
17 18 18 18 18 17 17 17 17 17 16 16 16 16 16 16 15 15 15 15 14 14 14 14 14 14 15 14 14 15 17 18 17 16 15 15 15 15 15 15 15 15 15
17 17 17 18 18 17 17 17 17 17 17 16 16 16 16 15 15 15 15 14 14 14 14 14 14 14 14 15 14 14 14 14 15 17 16 15 15 14 15 15 15 15 15
17 17 17 17 17 17 17 17 17 17 16 16 16 16 15 15 15 15 14 14 14 14 14 13 13 13 14 14 14 14 14 14 14 15 16 15 15 15 15 14 15 15 14
17 17 17 17 17 17 17 17 16 16 16 16 16 15 15 15 15 14 14 14 14 14 13 13 13 13 13 13 13 13 14 14 14 14 15 15 15 15 14 14 14 14 14
Wind_Speed
14 18 19 16 16 17 17 16 16 16 16 15 14 14 13 12 11 11 10 10 10 10 10 10 10 11 11 11 11 11 12 12 12 13 13 13 14 13 13 12 12 16 16
17 20 20 17 17 17 17 17 16 16 16 15 14 13 12 11 11 10 10 9 10 10 10 10 10 11 11 11 11 11 11 11 12 12 13 14 13 12 10 8 10 16 15
19 21 20 17 17 17 17 17 16 16 15 15 14 13 12 11 10 10 9 9 10 10 10 10 10 10 10 10 10 10 10 10 10 9 9 11 13 11 10 12 16 15 15
20 21 20 19 18 17 17 16 16 16 15 14 13 12 12 11 10 9 9 9 9 9 9 9 10 10 9 10 9 10 10 9 8 6 6 10 12 12 11 12 13 14 14
18 19 20 20 18 18 17 16 16 15 15 14 13 12 11 10 9 9 8 9 9 8 8 8 9 9 8 9 9 8 8 8 5 5 7 8 11 11 11 11 12 13 13
18 19 21 20 18 18 17 16 16 15 14 13 12 11 10 10 9 9 8 8 8 8 8 8 8 8 7 7 7 7 6 5 7 6 6 7 10 11 10 10 11 12 12
19 18 21 19 18 17 16 16 15 14 13 13 12 11 9 9 8 8 8 7 7 7 7 7 7 7 6 6 6 5 3 2 2 5 5 6 10 11 9 10 11 11 11
18 17 20 18 17 16 16 15 14 13 12 12 11 10 9 8 7 6 6 6 6 6 6 6 6 6 5 5 4 3 1 5 2 4 4 6 11 9 8 9 9 10 11
16 16 17 18 16 15 14 14 13 12 12 11 10 9 8 7 6 5 5 5 5 5 5 5 4 4 4 3 3 2 0 5 4 3 4 6 11 8 8 8 9 9 10
15 15 15 16 15 15 15 13 12 11 10 9 9 8 7 7 6 6 6 6 5 4 4 4 4 4 3 3 2 1 2 6 5 3 3 7 11 8 8 9 9 9 9
14 14 14 14 14 13 13 14 12 11 10 10 9 8 8 7 7 7 5 6 4 4 4 3 3 4 4 5 4 3 5 6 3 1 2 10 10 9 9 9 10 10 10
15 14 12 12 12 11 10 12 10 10 10 8 7 7 7 4 3 3 8 4 3 3 4 4 3 5 7 6 7 7 6 5 4 2 4 9 9 10 10 10 11 11 11
14 13 12 11 11 10 8 9 7 6 7 7 6 6 4 4 4 3 4 4 4 4 5 5 6 5 4 3 3 4 4 4 4 3 4 8 7 10 11 12 13 12 12
13 13 12 11 10 9 8 7 7 6 6 5 6 5 5 3 3 3 2 2 2 2 2 2 2 2 3 4 5 5 5 5 5 4 2 6 5 9 12 13 14 14 14
12 13 12 11 10 9 7 6 6 5 5 5 4 4 3 3 2 2 1 1 1 1 1 1 2 2 3 3 4 5 5 5 5 6 4 5 6 8 11 13 14 15 15
13 12 11 11 10 9 8 6 5 5 4 3 4 4 3 3 3 2 2 1 0 0 0 1 2 2 3 3 4 4 5 5 5 6 7 6 8 9 10 13 14 15 16
11 11 11 11 10 9 8 7 6 6 5 4 4 4 3 4 4 3 2 2 1 1 1 1 2 2 3 3 4 4 4 5 5 6 7 7 7 10 12 12 14 16 17
10 11 10 10 10 9 7 6 5 5 5 4 4 4 4 4 4 3 2 2 2 1 1 1 1 2 2 3 3 3 3 4 5 6 7 7 8 7 10 12 13 15 16
10 10 10 9 10 9 8 6 6 5 5 5 5 4 4 4 4 3 2 3 2 1 0 1 1 2 2 3 4 4 4 4 4 5 5 7 7 7 8 7 11 14 15
9 10 10 10 9 9 8 6 5 5 5 5 5 5 5 5 5 3 3 3 2 1 1 1 1 1 3 3 5 4 5 4 4 4 5 5 6 7 8 8 8 11 15
10 10 10 10 9 8 6 6 6 5 5 5 5 6 6 5 5 3 2 3 1 1 1 1 2 2 2 3 5 5 4 4 3 3 3 4 3 4 6 6 8 7 9
10 10 10 10 10 8 6 4 4 5 4 5 5 6 6 5 5 4 2 2 1 1 1 0 2 4 3 2 5 6 4 4 3 1 2 2 3 4 4 5 5 6 8
11 11 10 9 9 7 7 6 5 5 5 6 6 5 5 5 4 2 3 2 2 2 1 1 2 3 3 2 3 4 5 4 3 2 1 1 2 3 4 4 6 5 7
11 10 10 9 9 8 8 7 7 6 6 5 5 5 5 5 4 4 3 3 3 2 1 3 0 2 3 4 1 2 4 5 5 4 3 2 2 3 4 5 5 5 6
12 11 10 10 9 8 7 8 7 6 6 6 5 6 5 5 4 4 4 3 3 3 2 2 1 3 3 4 4 3 3 3 5 7 6 5 5 4 4 5 5 5 5
12 11 11 10 9 8 8 7 7 6 6 6 6 6 6 5 4 5 4 4 4 3 2 2 2 3 3 3 4 4 4 5 5 5 7 7 6 5 5 5 5 5 5
Wind_Direction
157 147 143 149 147 145 143 141 140 139 138 137 134 132 130 128 124 119 112 107 102 98 94 93 93 92 93 93 94 95 98 101 104 106 106 106 107 109 112 122 127 110 112
152 147 145 148 146 144 142 140 138 138 138 137 135 133 131 128 123 117 111 107 103 99 95 93 93 93 94 95 96 97 99 103 107 112 118 115 109 110 112 101 88 110 118
150 146 150 149 147 144 142 141 139 138 138 137 136 135 132 128 124 119 113 107 102 99 97 95 94 93 94 96 98 98 100 103 110 126 155 128 115 112 108 100 103 116 119
150 150 155 148 149 147 145 142 141 140 139 138 138 136 134 132 128 123 116 109 104 101 101 100 96 94 93 95 99 100 102 106 119 177 147 115 120 116 116 114 117 120 121
149 149 147 151 152 150 148 145 143 142 141 140 139 138 136 132 128 123 116 111 108 106 105 102 98 95 92 94 98 102 106 113 151 207 99 108 112 121 125 124 124 124 124
151 154 149 156 155 153 151 149 147 146 145 144 142 141 138 134 130 124 118 112 110 107 105 104 101 98 94 93 96 101 108 139 211 113 112 121 118 128 134 133 129 128 128
156 154 152 159 158 156 154 152 151 150 148 147 145 144 142 137 133 130 125 118 114 111 107 106 105 101 95 93 95 96 106 232 241 108 125 114 112 131 140 140 137 135 134
156 154 150 159 160 158 157 156 155 153 152 151 150 150 148 145 142 136 134 131 126 121 118 115 111 109 101 93 92 90 91 278 189 124 125 114 116 142 149 146 145 144 141
156 153 154 161 162 161 160 161 160 158 157 157 156 155 153 150 148 145 138 135 133 127 128 129 125 121 113 103 95 88 32 294 275 129 142 126 134 158 163 159 156 155 153
159 158 159 163 162 167 167 165 164 162 162 160 159 159 158 162 165 166 175 151 143 142 149 155 152 148 140 139 138 144 242 256 250 156 150 132 146 173 179 173 171 170 169
164 163 166 163 164 171 170 163 168 167 166 168 169 167 185 189 174 179 146 130 155 167 173 177 174 178 188 182 185 205 238 250 235 174 144 126 163 187 192 188 185 185 183
169 169 168 167 164 172 170 161 174 177 168 187 172 177 190 173 180 166 115 143 168 192 199 187 185 204 225 207 184 206 235 246 263 217 143 142 183 200 204 201 198 197 196
170 172 170 170 168 175 168 169 172 174 168 181 176 183 181 183 184 175 153 164 186 207 214 180 201 218 227 250 253 236 252 267 264 262 145 150 198 213 215 211 208 206 205
175 176 174 168 172 176 172 171 172 175 175 177 170 190 177 187 186 162 174 175 183 212 232 235 227 230 252 249 253 262 254 256 266 272 168 159 209 224 223 219 215 214 213
175 174 172 171 171 173 173 183 174 180 175 165 161 172 184 181 176 165 172 187 229 231 218 231 250 241 246 250 251 251 256 258 265 265 237 183 217 225 223 221 219 220 221
177 174 170 174 172 174 176 177 171 175 165 162 164 164 179 170 156 164 168 142 192 197 7 264 249 241 247 246 251 255 261 263 253 260 264 223 212 221 224 226 222 219 224
176 174 172 173 171 175 177 177 171 169 162 162 155 154 161 162 150 158 143 147 117 115 128 240 270 274 261 250 248 254 255 259 259 254 261 263 240 216 218 227 230 224 223
172 170 173 173 168 170 169 171 168 165 157 155 153 152 152 147 154 167 146 116 115 128 153 186 257 275 283 279 270 267 262 252 255 256 254 249 254 254 223 217 229 229 227
168 168 165 165 163 163 161 163 157 150 153 154 154 153 148 151 154 157 121 105 138 125 124 300 41 308 301 304 282 262 271 265 266 259 262 259 252 255 256 219 220 228 231
160 161 160 157 157 159 156 153 147 147 155 152 148 140 144 147 148 150 133 118 144 117 73 30 345 328 308 307 295 291 273 275 265 264 264 260 258 256 254 253 238 225 224
161 161 160 157 156 160 159 165 161 162 158 154 152 146 152 148 143 152 134 132 159 93 21 318 309 283 298 320 294 283 256 240 251 252 267 280 272 271 269 259 253 250 228
168 169 163 165 162 165 160 162 160 147 158 151 148 144 159 158 166 171 163 186 145 156 173 282 307 310 320 327 314 304 284 223 197 236 259 261 293 283 271 259 262 256 258
173 176 170 166 164 164 160 160 150 150 166 162 162 162 163 169 178 178 184 210 189 228 168 248 280 295 312 310 326 314 308 319 321 212 243 285 303 306 287 282 263 263 261
175 175 169 167 163 164 175 176 176 181 180 168 173 161 163 175 185 186 195 200 224 246 195 241 241 291 294 302 302 299 310 329 305 298 251 238 268 282 302 296 290 273 265
173 171 166 165 163 168 175 171 183 188 176 168 170 155 178 172 186 192 196 203 217 238 237 281 257 280 286 304 312 308 300 279 271 289 298 305 291 285 294 288 289 284 278
172 170 166 166 166 168 174 174 186 178 174 172 181 175 192 186 190 186 196 205 221 235 221 236 251 243 283 304 302 299 296 295 296 294 293 290 297 297 300 296 280 275 271
Height
1535 1536 1537 1540 1542 1545 1547 1549 1551 1552 1554 1555 1556 1557 1558 1559 1559 1560 1560 1561 1562 1562 1562 1563 1563 1564 1564 1564 1564 1565 1565 1566 1566 1566 1567 1568 1568 1569 1570 1571 1572 1573 1572
1533 1536 1537 1540 1543 1546 1548 1550 1552 1554 1555 1556 1558 1559 1560 1560 1561 1562 1562 1563 1563 1564 1564 1565 1565 1565 1565 1566 1566 1567 1567 1568 1568 1569 1569 1570 1571 1572 1572 1573 1574 1575 1575
1533 1535 1538 1541 1544 1547 1549 1551 1553 1555 1556 1558 1559 1560 1561 1562 1563 1564 1564 1565 1565 1565 1566 1566 1567 1567 1567 1568 1568 1568 1569 1570 1570 1571 1572 1574 1573 1574 1575 1575 1576 1577 1577
1533 1536 1539 1542 1545 1548 1550 1553 1555 1556 1558 1559 1560 1562 1563 1564 1564 1565 1566 1566 1567 1567 1567 1568 1568 1569 1569 1570 1570 1570 1571 1572 1573 1574 1577 1578 1577 1576 1577 1578 1578 1579 1580
1534 1538 1540 1543 1546 1549 1551 1554 1556 1557 1559 1560 1562 1563 1564 1565 1566 1567 1567 1568 1568 1569 1569 1570 1570 1571 1571 1572 1572 1573 1573 1574 1575 1577 1579 1579 1578 1578 1578 1579 1580 1581 1582
1534 1539 1540 1544 1547 1550 1552 1555 1557 1559 1560 1561 1563 1564 1565 1566 1567 1568 1569 1569 1570 1570 1571 1571 1572 1573 1573 1574 1574 1575 1575 1576 1577 1580 1580 1581 1580 1579 1580 1581 1582 1583 1584
1536 1540 1541 1545 1548 1551 1553 1556 1558 1559 1561 1562 1564 1565 1566 1567 1568 1569 1570 1571 1571 1572 1572 1573 1574 1574 1575 1576 1576 1577 1577 1578 1580 1582 1581 1582 1581 1581 1582 1583 1584 1585 1586
1537 1541 1542 1545 1549 1552 1555 1557 1559 1560 1562 1563 1565 1566 1567 1568 1569 1570 1571 1572 1572 1573 1574 1574 1575 1576 1576 1577 1578 1578 1579 1579 1582 1583 1583 1583 1582 1582 1583 1584 1585 1586 1587
1538 1541 1543 1546 1549 1552 1555 1558 1559 1561 1563 1564 1566 1567 1568 1569 1570 1571 1572 1573 1573 1574 1574 1575 1576 1577 1577 1578 1579 1579 1580 1581 1583 1584 1584 1584 1583 1583 1584 1585 1586 1587 1588
1538 1542 1545 1548 1550 1553 1556 1558 1560 1562 1563 1565 1566 1568 1569 1570 1571 1572 1573 1573 1574 1574 1575 1576 1576 1577 1578 1579 1580 1580 1581 1582 1584 1585 1585 1584 1584 1584 1585 1586 1587 1588 1589
1538 1542 1545 1548 1551 1554 1557 1558 1560 1562 1564 1565 1567 1568 1569 1572 1573 1573 1574 1574 1574 1575 1575 1576 1577 1577 1578 1579 1580 1580 1581 1583 1585 1585 1585 1584 1584 1585 1585 1586 1587 1588 1590
1537 1541 1544 1548 1550 1554 1557 1558 1561 1563 1564 1566 1568 1568 1570 1571 1572 1574 1573 1574 1574 1575 1575 1576 1576 1577 1578 1580 1580 1580 1582 1583 1585 1585 1585 1584 1584 1585 1585 1586 1587 1588 1590
1537 1541 1544 1547 1550 1554 1556 1558 1561 1563 1564 1566 1567 1568 1570 1571 1572 1573 1573 1574 1574 1575 1576 1576 1576 1578 1579 1579 1580 1581 1582 1583 1584 1584 1584 1583 1584 1584 1585 1586 1587 1588 1589
1537 1540 1543 1546 1549 1552 1555 1558 1560 1562 1564 1566 1566 1567 1569 1570 1571 1572 1572 1573 1574 1574 1575 1575 1576 1577 1577 1578 1578 1579 1580 1581 1582 1583 1582 1581 1582 1583 1584 1585 1586 1587 1588
1535 1539 1542 1545 1548 1551 1554 1557 1559 1561 1564 1565 1565 1566 1568 1570 1570 1571 1571 1572 1573 1573 1574 1574 1575 1575 1575 1576 1577 1577 1578 1579 1579 1580 1581 1580 1581 1581 1582 1583 1584 1585 1586
1534 1538 1541 1544 1547 1550 1553 1555 1558 1561 1562 1564 1565 1566 1567 1568 1569 1570 1571 1571 1572 1572 1573 1573 1573 1573 1574 1575 1575 1575 1575 1576 1576 1577 1578 1578 1578 1579 1580 1581 1582 1583 1584
1534 1537 1540 1543 1546 1549 1552 1555 1558 1560 1561 1563 1564 1565 1566 1567 1568 1569 1570 1570 1571 1571 1571 1572 1572 1573 1573 1573 1573 1573 1573 1574 1574 1574 1575 1575 1576 1576 1577 1578 1579 1580 1581
1533 1536 1539 1543 1546 1549 1551 1554 1557 1559 1560 1562 1563 1564 1565 1566 1567 1568 1569 1570 1570 1570 1571 1571 1571 1572 1572 1572 1572 1572 1572 1571 1571 1572 1572 1572 1573 1574 1574 1575 1576 1577 1577
1531 1534 1538 1541 1544 1548 1550 1553 1555 1557 1559 1560 1562 1563 1564 1566 1567 1568 1569 1568 1569 1570 1570 1571 1571 1571 1571 1570 1571 1570 1570 1570 1569 1570 1570 1570 1570 1570 1571 1572 1572 1573 1574
1530 1533 1537 1540 1543 1547 1549 1552 1554 1556 1558 1559 1561 1562 1564 1565 1566 1568 1568 1568 1569 1570 1570 1570 1569 1569 1569 1569 1569 1569 1568 1567 1567 1567 1567 1567 1567 1568 1568 1569 1569 1569 1570
1529 1532 1535 1539 1542 1546 1549 1551 1553 1555 1557 1559 1560 1562 1563 1565 1566 1567 1568 1567 1568 1569 1568 1569 1569 1569 1569 1568 1568 1567 1566 1566 1565 1565 1565 1565 1565 1565 1565 1565 1565 1566 1566
1528 1531 1534 1538 1542 1545 1548 1550 1552 1554 1556 1558 1560 1561 1563 1564 1565 1567 1567 1568 1567 1567 1567 1567 1567 1568 1568 1567 1567 1566 1565 1565 1564 1564 1563 1563 1563 1563 1562 1562 1562 1562 1562
1527 1531 1535 1537 1541 1544 1546 1549 1551 1553 1555 1557 1559 1560 1562 1563 1564 1565 1565 1566 1566 1567 1567 1566 1566 1566 1567 1566 1566 1566 1565 1562 1563 1563 1562 1561 1561 1561 1561 1560 1560 1559 1559
1527 1531 1533 1536 1539 1542 1545 1548 1550 1553 1555 1557 1558 1560 1560 1562 1563 1564 1564 1564 1565 1566 1565 1565 1565 1565 1565 1565 1565 1564 1565 1564 1563 1561 1561 1560 1560 1559 1558 1558 1558 1557 1557
1526 1530 1532 1535 1538 1541 1544 1546 1548 1552 1554 1556 1557 1558 1559 1560 1561 1562 1562 1563 1563 1564 1564 1563 1563 1563 1564 1564 1564 1564 1563 1563 1562 1562 1560 1560 1559 1558 1557 1556 1555 1555 1555
1525 1528 1531 1534 1537 1539 1542 1545 1547 1550 1552 1554 1555 1557 1558 1559 1560 1560 1561 1561 1562 1562 1562 1561 1561 1562 1561 1561 1561 1562 1562 1562 1561 1560 1559 1558 1557 1556 1555 1554 1553 1553 1552